Change the Weather History Date:

Saturday, May 18, 2013

  Actual Average Record
Temperature  
Mean Temperature 71 °F 64 °F  
Max Temperature 81 °F 75 °F 95 °F (1962)
Min Temperature 61 °F 53 °F 38 °F (2002)
Degree Days  
Heating Degree Days 0 4  
Month to date heating degree days 94  
Since 1 July heating degree days 5439  
Cooling Degree Days 6 3  
Month to date cooling degree days 48 34  
Year to date cooling degree days 62 54  
Growing Degree Days 21 (Base 50)    
Moisture  
Dew Point 63 °F    
Average Humidity 77    
Maximum Humidity 100    
Minimum Humidity 54    
Precipitation  
Precipitation 0.00 in 0.13 in 2.32 in (1928)
Month to date precipitation 4.00 2.41  
Year to date precipitation 18.12 12.18  
Snow  
Snow 0.00 in 0.00 in 0.00 in ()
Month to date snowfall 0.0 0.0  
Since 1 July snowfall 33.1 20.9  
Snow Depth 0.00 in    
Sea Level Pressure  
Sea Level Pressure 29.97 in    
Wind  
Wind Speed 6 mph (SE)    
Max Wind Speed 14 mph    
Max Gust Speed 16 mph    
Visibility 8 miles    
Events      
T = Trace of Precipitation, MM = Missing Value Source: NWS Daily Summary

Daily Weather History Graph

Daily Weather History Graph

Search for Another Location

Airport or City:

Trip Planner

Search our weather history database for the weather conditions in past years. The results will help you decide how hot, cold, wet, or windy it might be!

Date:

Astronomy

May. 18, 2013 Rise Set
Actual Time 5:41 AM CDT 8:09 PM CDT
Civil Twilight 5:10 AM CDT 8:40 PM CDT
Nautical Twilight 4:31 AM CDT 9:19 PM CDT
Astronomical Twilight 3:49 AM CDT 10:02 PM CDT
Moon 1:13 PM CDT (5/18) 1:32 AM CDT (5/18)
Length of Visible Light 15h 30m
Length of Day
14h 28m
First Quarter, 55% of the Moon is Illuminated
May 18
First Quarter
May 24
Full
May 31
Last Quarter
Jun 8
New
Jun 16
First Quarter

Hourly Weather History & Observations

Time (CDT) Temp. Heat Index Dew Point Humidity Pressure Visibility Wind Dir Wind Speed Gust Speed Precip Events Conditions
12:52 AM 66.0 °F - 63.0 °F 90% 29.98 in 7.0 mi SE 6.9 mph - N/A   Clear
1:52 AM 66.0 °F - 63.0 °F 90% 29.98 in 9.0 mi SSE 8.1 mph - N/A   Clear
2:52 AM 64.9 °F - 62.1 °F 90% 29.98 in 9.0 mi SE 5.8 mph - N/A   Clear
3:52 AM 64.9 °F - 62.1 °F 90% 29.99 in 8.0 mi SSE 4.6 mph - N/A   Scattered Clouds
4:02 AM 64.4 °F - 62.6 °F 94% 30.00 in 8.0 mi SSE 4.6 mph - N/A   Mostly Cloudy
4:52 AM 64.0 °F - 62.1 °F 93% 29.99 in 7.0 mi Calm Calm - N/A   Overcast
5:20 AM 62.6 °F - 60.8 °F 94% 30.00 in 5.0 mi East 3.5 mph - N/A   Partly Cloudy
5:44 AM 62.6 °F - 62.6 °F 100% 30.01 in 3.0 mi East 3.5 mph - N/A   Mostly Cloudy
5:52 AM 63.0 °F - 62.1 °F 97% 30.00 in 2.5 mi Calm Calm - N/A   Mostly Cloudy
6:29 AM 62.6 °F - 62.6 °F 100% 30.01 in 2.5 mi ESE 4.6 mph - N/A   Scattered Clouds
6:40 AM 64.4 °F - 62.6 °F 94% 30.01 in 3.0 mi East 5.8 mph - N/A   Clear
6:52 AM 64.0 °F - 63.0 °F 96% 30.00 in 3.0 mi ESE 4.6 mph - N/A   Clear
7:52 AM 68.0 °F - 64.0 °F 87% 30.01 in 5.0 mi ESE 5.8 mph - N/A   Clear
8:52 AM 71.1 °F - 64.0 °F 78% 30.02 in 10.0 mi South 5.8 mph - N/A   Mostly Cloudy
9:52 AM 73.0 °F - 64.0 °F 73% 30.01 in 10.0 mi SE 6.9 mph - N/A   Scattered Clouds
10:52 AM 73.0 °F - 63.0 °F 71% 30.01 in 10.0 mi SE 9.2 mph - N/A   Mostly Cloudy
11:52 AM 75.0 °F - 62.1 °F 64% 30.01 in 10.0 mi ESE 6.9 mph - N/A   Overcast
12:52 PM 75.9 °F - 63.0 °F 64% 29.98 in 10.0 mi Calm Calm - N/A   Overcast
1:52 PM 80.1 °F 81.7 °F 64.0 °F 58% 29.95 in 10.0 mi East 4.6 mph - 0.00 in   Partly Cloudy
2:52 PM 79.0 °F - 63.0 °F 58% 29.95 in 10.0 mi ESE 9.2 mph - N/A   Mostly Cloudy
3:52 PM 79.0 °F - 62.1 °F 56% 29.94 in 10.0 mi SE 4.6 mph - N/A   Overcast
4:52 PM 80.1 °F 81.2 °F 62.1 °F 54% 29.93 in 10.0 mi SE 6.9 mph - N/A   Overcast
5:52 PM 80.1 °F 81.2 °F 62.1 °F 54% 29.93 in 10.0 mi Variable 6.9 mph - N/A   Overcast
6:52 PM 79.0 °F - 62.1 °F 56% 29.92 in 10.0 mi South 9.2 mph - N/A   Clear
7:52 PM 75.9 °F - 63.0 °F 64% 29.92 in 10.0 mi SSE 9.2 mph - N/A   Clear
8:52 PM 72.0 °F - 63.0 °F 73% 29.93 in 10.0 mi SSE 4.6 mph - N/A   Clear
9:52 PM 72.0 °F - 64.0 °F 76% 29.92 in 10.0 mi SE 8.1 mph - N/A   Clear
10:52 PM 69.1 °F - 64.0 °F 84% 29.91 in 9.0 mi SE 8.1 mph - N/A   Clear
11:52 PM 66.9 °F - 63.0 °F 87% 29.92 in 7.0 mi SSE 4.6 mph - N/A   Clear